LEMUR-2-JOBANPUTRA

Last updated on Wed Feb 14 2018 16:20:29 GMT+0000 (Coordinated Universal Time)

1 41997U 17008BB 18044.91829746 .00001522 00000-0 66484-4 0 9991 2 41997 97.4660 110.4466 0010368 85.6824 274.5597 15.23612453 54647
UTC large
Height (km)
Speed (km/s)
/
Latitude / Longitude
Inclination (degrees)
Orbital Period (minutes)
Azimuth
Elevation
Range (km)
Doppler Factor

Next 0 passes for location: London (51.5072 / 0.1276)

Sorry there are no passes over London.